Weather History for Martha's Vineyard, MA

Change the Weather History Date:

Friday, March 1, 2013

  Actual Average Record
Temperature  
Mean Temperature 39 °F -  
Max Temperature 44 °F 41 °F 58 °F (1972)
Min Temperature 34 °F 25 °F 3 °F (2014)
Degree Days  
Heating Degree Days 26    
Moisture  
Dew Point 33 °F    
Average Humidity 84    
Maximum Humidity 100    
Minimum Humidity 58    
Precipitation  
Precipitation 0.00 in - - ()
Sea Level Pressure  
Sea Level Pressure 29.58 in    
Wind  
Wind Speed 6 mph (North)    
Max Wind Speed 18 mph    
Max Gust Speed 24 mph    
Visibility 10 miles    
Events      
Averages and records for this station are not official NWS values.
T = Trace of Precipitation, MM = Missing Value Source: NWS Daily Summary

Daily Weather History Graph

Daily Weather History Graph

Search for Another Location

Airport:

Trip Planner

Search our weather history database for the weather conditions in past years. The results will help you decide how hot, cold, wet, or windy it might be!

Date:

Astronomy

Mar. 01, 2013 Rise Set
Actual Time 6:16 AM EST 5:33 PM EST
Civil Twilight 5:48 AM EST 6:01 PM EST
Nautical Twilight 5:16 AM EST 6:33 PM EST
Astronomical Twilight 4:44 AM EST 7:05 PM EST
Moon 10:07 PM EST (3/1) 7:58 AM EST (3/1)
Length of Visible Light 12h 12m
Length of Day
11h 16m
Waning Gibbous, 83% of the Moon is Illuminated
Mar 1
Waning Gibbous
Mar 4
Last Quarter
Mar 11
New
Mar 19
First Quarter
Mar 27
Full

Hourly Weather History & Observations

Time (EST) Temp. Windchill Dew Point Humidity Pressure Visibility Wind Dir Wind Speed Gust Speed Precip Events Conditions
12:12 AM 37.4 °F - 37.4 °F 100% 29.50 in 9.0 mi Calm Calm - N/A   Overcast
12:53 AM 36.0 °F 33.3 °F 36.0 °F 100% 29.50 in 5.0 mi NE 3.5 mph - N/A   Overcast
1:17 AM 37.4 °F 32.8 °F 35.6 °F 93% 29.50 in 7.0 mi North 5.8 mph - N/A   Mostly Cloudy
1:53 AM 36.0 °F 32.1 °F 35.1 °F 97% 29.50 in 4.0 mi North 4.6 mph - N/A   Mostly Cloudy
2:27 AM 37.4 °F 31.4 °F 35.6 °F 93% 29.51 in 9.0 mi North 8.1 mph - N/A   Mostly Cloudy
2:35 AM 37.4 °F 30.3 °F 35.6 °F 93% 29.51 in 10.0 mi North 10.4 mph - N/A   Overcast
2:53 AM 37.0 °F 30.4 °F 36.0 °F 96% 29.51 in 10.0 mi North 9.2 mph - N/A   Overcast
3:53 AM 37.0 °F 32.4 °F 36.0 °F 96% 29.52 in 10.0 mi NNW 5.8 mph - N/A   Overcast
4:01 AM 37.4 °F 32.1 °F 35.6 °F 93% 29.52 in 10.0 mi North 6.9 mph - N/A   Overcast
4:53 AM 37.0 °F 31.0 °F 36.0 °F 96% 29.53 in 10.0 mi North 8.1 mph - N/A   Overcast
5:14 AM 37.4 °F 30.8 °F 35.6 °F 93% 29.54 in 10.0 mi North 9.2 mph - N/A   Overcast
5:53 AM 36.0 °F 29.6 °F 34.0 °F 93% 29.54 in 10.0 mi NNW 8.1 mph - N/A   Overcast
6:20 AM 35.6 °F 30.7 °F 35.6 °F 100% 29.55 in 10.0 mi NNW 5.8 mph - N/A   Overcast
6:53 AM 37.0 °F 32.4 °F 35.1 °F 93% 29.56 in 10.0 mi NW 5.8 mph - N/A   Overcast
7:53 AM 39.0 °F 31.4 °F 34.0 °F 82% 29.58 in 10.0 mi NNW 12.7 mph 18.4 mph N/A   Mostly Cloudy
8:08 AM 39.2 °F 31.6 °F 33.8 °F 81% 29.58 in 10.0 mi NW 12.7 mph - N/A   Partly Cloudy
8:53 AM 41.0 °F 34.7 °F 35.1 °F 79% 29.58 in 10.0 mi NNW 10.4 mph - N/A   Partly Cloudy
9:20 AM 39.2 °F 30.5 °F 33.8 °F 81% 29.59 in 10.0 mi NNW 16.1 mph 21.9 mph N/A   Mostly Cloudy
9:53 AM 43.0 °F 35.7 °F 33.1 °F 68% 29.59 in 10.0 mi North 15.0 mph 20.7 mph N/A   Mostly Cloudy
10:53 AM 42.1 °F 33.6 °F 32.0 °F 67% 29.60 in 10.0 mi North 18.4 mph 24.2 mph N/A   Overcast
12:38 PM 42.8 °F 36.2 °F 30.2 °F 61% 29.59 in 10.0 mi North 12.7 mph - N/A   Overcast
12:53 PM 43.0 °F 36.4 °F 30.0 °F 60% 29.59 in 10.0 mi NNE 12.7 mph - N/A   Overcast
1:53 PM 44.1 °F 39.0 °F 30.0 °F 58% 29.59 in 10.0 mi NNE 9.2 mph - N/A   Overcast
2:53 PM 42.1 °F 36.6 °F 30.9 °F 65% 29.60 in 10.0 mi NNE 9.2 mph - N/A   Overcast
3:53 PM 41.0 °F 37.1 °F 32.0 °F 70% 29.61 in 10.0 mi NNE 5.8 mph - N/A   Overcast
4:53 PM 39.9 °F 37.8 °F 30.9 °F 70% 29.63 in 10.0 mi NNE 3.5 mph - N/A   Overcast
5:53 PM 37.9 °F 35.5 °F 32.0 °F 79% 29.65 in 10.0 mi ENE 3.5 mph - N/A   Overcast
6:53 PM 35.1 °F - 30.0 °F 82% 29.66 in 10.0 mi Calm Calm - N/A   Mostly Cloudy
7:53 PM 35.1 °F - 30.9 °F 85% 29.66 in 10.0 mi Calm Calm - N/A   Scattered Clouds
8:53 PM 35.1 °F 32.2 °F 30.9 °F 85% 29.67 in 10.0 mi NW 3.5 mph - N/A   Overcast
9:53 PM 34.0 °F - 30.9 °F 89% 29.67 in 10.0 mi Calm Calm - N/A   Overcast
10:53 PM 35.1 °F - 32.0 °F 89% 29.67 in 10.0 mi Calm Calm - N/A   Overcast
11:53 PM 35.1 °F 32.2 °F 30.9 °F 85% 29.66 in 10.0 mi NW 3.5 mph - N/A   Overcast